Back to catalog

H-2A R/B

AlivePO
NORAD 33500·ROCKET BODY·🇯🇵 Japan

Launched Jan 23, 2009 from Tanegashima Space Center

Loading…

Next Passes (next 24 hours)

TLE

FreshSource: Space-Track

Epoch: Sep 14, 2026, 20:52 UTC

1 33500U 09002J   26257.86999572  .00001388  00000-0  10796-3 0  9995
2 33500  98.2175 288.2405 0030549 198.1007 161.9131 15.02806730957792

Track H-2A R/B in real time with AllMySat

Download on the App Store